Terug naar catalogus

SL-14 R/B

ActiefPO
NORAD 17912·ROCKET BODY·🇷🇺 Russia

Gelanceerd Apr 27, 1987 vanaf Plesetsk Cosmodrome

Loading…

Volgende Passages (komende 24 uur)

TLE

VersSource: Space-Track

Epoch: Sep 14, 2026, 22:05 UTC

1 17912U 87038B   26257.92019244  .00000248  00000-0  25936-4 0  9992
2 17912  82.4998 118.5563 0017694 258.4066 101.5164 14.85496178107323

Volg SL-14 R/B in realtime met AllMySat

Download on the App Store